EW7806 Weather Reports


Display with metric or nautical units.
time (UTC)temp
F
wind
direction
speed
MPH
gust
MPH
rain 1hr
in
rain 24hr
in
rain mn
in
humidity
%
barometer
mb
20260904041532 69 247 4.0 11.0 0.00 0.01 0.00 89 1009.3
20260904041026 69 257 4.0 11.0 0.00 0.01 0.00 89 1009.3
20260904040029 69 262 4.0 12.0 0.00 0.01 0.00 89 1009.6
20260904035504 69 197 4.0 12.0 0.00 0.01 0.00 89 1009.5
20260904034932 69 89 3.0 11.0 0.00 0.01 0.00 89 1009.7
20260904034431 69 278 3.0 11.0 0.00 0.01 0.00 89 1009.7
20260904033933 69 256 3.0 11.0 0.00 0.01 0.00 89 1009.8
20260904033425 69 276 4.0 12.0 0.00 0.01 0.00 89 1009.9
20260904032924 69 176 4.0 12.0 0.00 0.01 0.00 89 1010.0
20260904032411 69 196 4.0 11.0 0.00 0.01 0.00 89 1010.0
20260904031907 69 254 4.0 10.0 0.00 0.01 0.00 89 1010.0
20260904031407 69 347 4.0 13.0 0.00 0.01 0.00 89 1010.0
20260904030901 69 157 4.0 13.0 0.00 0.01 0.00 89 1010.0
20260904030332 69 244 4.0 10.0 0.00 0.01 0.00 89 1010.2
20260904025833 69 212 3.0 10.0 0.00 0.01 0.00 89 1010.1
20260904025339 69 215 3.0 11.0 0.00 0.01 0.00 89 1010.1
20260904024314 69 283 3.0 12.0 0.00 0.01 0.00 89 1010.3
20260904023309 69 247 3.0 6.0 0.00 0.01 0.00 89 1010.5
20260904022307 69 216 2.0 14.0 0.00 0.01 0.00 89 1010.5
20260904021810 69 185 4.0 15.0 0.00 0.01 0.00 90 1010.7
20260904020733 69 205 4.0 14.0 0.00 0.01 0.00 90 1010.8
20260904020235 69 263 4.0 11.0 0.00 0.01 0.00 90 1010.9
20260904015733 69 237 4.0 11.0 0.00 0.01 0.00 90 1011.0
20260904015213 69 252 4.0 14.0 0.00 0.01 0.00 90 1011.0
20260904014635 69 229 3.0 14.0 0.00 0.01 0.00 90 1011.0
20260904014134 69 229 3.0 12.0 0.00 0.01 0.00 90 1011.2
20260904013611 69 93 3.0 12.0 0.00 0.01 0.00 90 1011.2
20260904013107 69 98 3.0 10.0 0.00 0.01 0.00 90 1011.4
20260904012052 69 193 4.0 11.0 0.00 0.01 0.00 89 1011.5
20260904011534 69 203 4.0 11.0 0.00 0.01 0.00 89 1011.5
20260904011102 69 349 3.0 11.0 0.00 0.01 0.00 89 1011.5
20260904010546 69 193 3.0 5.0 0.00 0.01 0.00 89 1011.6
20260904010007 69 198 3.0 11.0 0.00 0.01 0.00 89 1011.7
20260904005048 69 194 3.0 13.0 0.00 0.02 0.00 88 1011.8
20260904004519 69 216 3.0 13.0 0.00 0.02 0.00 88 1011.8
20260904004032 69 238 3.0 11.0 0.00 0.02 0.00 87 1011.8
20260904003539 69 233 3.0 11.0 0.00 0.02 0.00 87 1011.9
20260904002536 69 240 2.0 12.0 0.00 0.02 0.00 89 1012.0
20260904002057 69 215 4.0 12.0 0.00 0.02 0.00 90 1012.0
20260904001521 69 104 4.0 12.0 0.00 0.02 0.00 90 1012.1
20260904000953 69 202 4.0 12.0 0.00 0.02 0.00 90 1012.1
20260904000433 69 284 3.0 12.0 0.00 0.02 0.00 90 1012.0
20260903235937 69 212 3.0 12.0 0.00 0.02 0.00 90 1012.0
20260903235434 69 233 3.0 11.0 0.00 0.02 0.00 90 1012.1
20260903234912 69 275 2.0 10.0 0.00 0.02 0.00 90 1012.3
20260903234408 69 184 3.0 10.0 0.00 0.02 0.00 90 1012.3
20260903233921 69 169 2.0 10.0 0.00 0.02 0.00 90 1012.2
20260903232905 69 273 1.0 11.0 0.00 0.03 0.00 90 1012.0
20260903231833 68 81 2.0 10.0 0.00 0.04 0.00 90 1012.5
20260903231332 68 86 2.0 11.0 0.00 0.04 0.00 90 1012.5
20260903230840 68 282 1.0 11.0 0.00 0.04 0.00 90 1012.6
20260903230407 68 232 1.0 7.0 0.00 0.04 0.00 90 1012.8
20260903225832 68 224 1.0 8.0 0.00 0.04 0.00 90 1012.9
20260903225317 68 199 1.0 8.0 0.00 0.04 0.00 90 1013.0
20260903224812 68 123 1.0 9.0 0.00 0.06 0.00 90 1013.0
20260903224308 68 79 1.0 9.0 0.00 0.06 0.00 90 1013.2
20260903223314 68 74 1.0 12.0 0.00 0.06 0.00 90 1013.2
20260903222812 68 260 1.0 10.0 0.00 0.06 0.00 90 1013.3
20260903221812 68 77 2.0 5.0 0.00 0.06 0.00 90 1013.4
20260903221318 68 77 2.0 13.0 0.00 0.06 0.00 90 1013.5
20260903220811 68 220 2.0 13.0 0.00 0.06 0.00 90 1013.5
20260903220306 68 113 1.0 9.0 0.00 0.06 0.00 90 1013.7
20260903214734 68 141 1.0 11.0 0.00 0.06 0.06 90 1013.7
20260903214236 68 99 1.0 9.0 0.00 0.06 0.06 90 1013.8
20260903213710 68 87 0.0 7.0 0.00 0.06 0.06 90 1014.0
20260903213215 68 75 0.0 3.0 0.00 0.06 0.06 90 1014.0
20260903212211 68 193 0.0 8.0 0.00 0.06 0.06 90 1014.2
20260903211712 68 115 0.0 7.0 0.00 0.06 0.06 90 1014.1
20260903211208 68 275 1.0 7.0 0.00 0.06 0.06 90 1014.3
20260903210710 68 91 0.0 8.0 0.00 0.06 0.06 90 1014.4
20260903210218 68 84 1.0 8.0 0.00 0.07 0.06 90 1014.4
20260903205716 68 83 0.0 6.0 0.00 0.07 0.06 90 1014.5
20260903205207 68 82 1.0 6.0 0.00 0.08 0.06 90 1014.6
20260903204209 68 105 1.0 8.0 0.00 0.08 0.06 90 1014.5
20260903203709 68 91 1.0 8.0 0.00 0.08 0.06 90 1014.6
20260903203209 68 110 0.0 7.0 0.00 0.08 0.06 90 1014.6
20260903202705 68 96 1.0 6.0 0.00 0.08 0.06 90 1014.6
20260903201632 68 120 0.0 7.0 0.00 0.08 0.06 90 1014.7
20260903201112 68 100 0.0 6.0 0.00 0.08 0.06 90 1014.8
20260903200609 68 120 0.0 6.0 0.00 0.08 0.06 90 1014.8
20260903200109 68 113 0.0 1.0 0.00 0.08 0.06 90 1014.8
20260903195617 68 293 0.0 6.0 0.00 0.08 0.06 90 1014.7
20260903195113 68 99 1.0 6.0 0.00 0.08 0.06 90 1014.7
20260903194611 68 240 0.0 5.0 0.00 0.08 0.06 90 1014.8
20260903194121 68 94 0.0 5.0 0.00 0.09 0.06 90 1014.8
20260903193621 68 283 0.0 2.0 0.00 0.09 0.06 90 1014.9
20260903193106 68 196 0.0 0.0 0.00 0.09 0.06 90 1015.1
20260903192621 68 348 0.0 3.0 0.00 0.09 0.06 90 1015.1
20260903192035 68 264 0.0 3.0 0.00 0.09 0.06 89 1015.2
20260903191606 68 85 0.0 3.0 0.00 0.09 0.06 89 1015.2
20260903191111 68 158 0.0 3.0 0.00 0.09 0.06 89 1015.3
20260903190532 68 311 0.0 0.0 0.00 0.09 0.06 89 1015.5
20260903190022 68 164 0.0 0.0 0.00 0.09 0.06 89 1015.5
20260903185522 68 198 0.0 1.0 0.00 0.09 0.06 89 1015.3
20260903185024 68 173 0.0 1.0 0.00 0.09 0.06 88 1015.2
20260903184434 68 98 0.0 2.0 0.00 0.09 0.06 88 1015.2
20260903183412 68 257 0.0 1.0 0.00 0.09 0.06 87 1015.1
20260903182916 68 247 0.0 1.0 0.00 0.09 0.06 87 1015.1
20260903182416 68 283 0.0 3.0 0.00 0.09 0.06 87 1015.2
20260903181911 68 205 0.0 3.0 0.00 0.09 0.06 87 1015.2
20260903180917 68 280 0.0 1.0 0.00 0.09 0.06 86 1015.2
20260903180409 69 88 0.0 1.0 0.00 0.09 0.06 86 1015.4
20260903175414 69 159 0.0 3.0 0.00 0.09 0.06 85 1015.5
20260903174908 69 169 0.0 1.0 0.00 0.09 0.06 85 1015.0
20260903173834 69 188 0.0 7.0 0.00 0.09 0.06 85 1015.3
20260903173311 69 172 1.0 3.0 0.00 0.09 0.06 85 1015.5
20260903172811 69 256 1.0 8.0 0.00 0.09 0.06 85 1015.5
20260903172306 69 183 0.0 8.0 0.00 0.09 0.06 86 1015.6
20260903171805 69 210 1.0 1.0 0.00 0.09 0.06 86 1015.6
20260903171247 69 297 1.0 8.0 0.00 0.09 0.06 86 1015.5
20260903170735 69 172 0.0 8.0 0.00 0.09 0.06 86 1015.5
20260903170235 69 217 0.0 4.0 0.00 0.09 0.06 86 1015.4
20260903165214 69 137 1.0 9.0 0.00 0.09 0.06 86 1015.4
20260903164711 70 213 1.0 9.0 0.00 0.09 0.06 85 1015.4
20260903164206 70 200 1.0 9.0 0.00 0.09 0.06 85 1015.2
20260903163656 70 256 1.0 7.0 0.00 0.09 0.06 85 1015.2
20260903163135 70 220 0.0 8.0 0.00 0.09 0.06 85 1015.2
20260903162634 70 340 1.0 8.0 0.00 0.09 0.06 85 1015.4
20260903162135 70 208 1.0 0.0 0.00 0.09 0.06 84 1015.5
20260903161636 71 259 1.0 7.0 0.00 0.09 0.06 84 1015.4
20260903161134 70 335 1.0 7.0 0.00 0.09 0.06 84 1015.5
20260903160619 70 209 1.0 7.0 0.00 0.09 0.06 83 1015.8
20260903160109 70 158 1.0 7.0 0.00 0.09 0.06 83 1015.6
20260903155612 70 177 1.0 10.0 0.00 0.09 0.06 83 1015.4
20260903155111 70 233 1.0 10.0 0.00 0.09 0.06 84 1015.5
20260903154609 70 301 1.0 10.0 0.00 0.09 0.06 84 1015.5
20260903154113 70 236 1.0 10.0 0.00 0.09 0.06 83 1015.5
20260903153621 71 186 0.0 5.0 0.00 0.09 0.06 80 1015.4
20260903153042 71 270 1.0 5.0 0.00 0.09 0.06 80 1015.5
20260903152546 71 217 1.0 8.0 0.00 0.09 0.06 80 1015.4
20260903152035 71 141 1.0 8.0 0.00 0.09 0.06 80 1015.4
20260903151541 71 3 1.0 8.0 0.00 0.09 0.06 80 1015.5
20260903151035 71 210 2.0 8.0 0.00 0.09 0.06 80 1015.4
20260903150023 71 115 2.0 9.0 0.00 0.09 0.06 80 1015.6
20260903145520 71 143 1.0 9.0 0.00 0.09 0.06 80 1015.7
20260903145018 71 111 0.0 9.0 0.00 0.09 0.06 79 1015.6
20260903144514 71 115 1.0 9.0 0.00 0.09 0.06 78 1015.4
20260903144025 72 227 1.0 9.0 0.00 0.09 0.06 79 1015.4
20260903143522 72 229 1.0 9.0 0.00 0.09 0.06 79 1015.3
20260903143015 72 160 2.0 6.0 0.00 0.09 0.06 80 1015.3
20260903142504 71 301 2.0 10.0 0.00 0.09 0.06 80 1015.3
20260903141934 71 266 0.0 7.0 0.00 0.09 0.06 83 1015.4
20260903141434 71 228 0.0 7.0 0.00 0.09 0.06 83 1015.3
20260903140943 70 321 1.0 7.0 0.00 0.09 0.06 84 1015.5
20260903140433 70 250 1.0 5.0 0.00 0.09 0.06 84 1015.5
20260903135439 70 200 1.0 7.0 0.00 0.09 0.06 84 1015.4
20260903134934 70 223 1.0 6.0 0.00 0.09 0.06 83 1015.3
20260903134435 70 4 1.0 11.0 0.00 0.09 0.06 83 1015.3
20260903133935 71 179 1.0 11.0 0.00 0.09 0.06 83 1015.4
20260903133410 71 184 1.0 1.0 0.00 0.09 0.06 82 1015.3
20260903132909 71 217 1.0 8.0 0.00 0.09 0.06 82 1015.4
20260903132413 71 141 2.0 8.0 0.00 0.09 0.06 82 1015.3
20260903131914 71 207 2.0 11.0 0.00 0.09 0.06 81 1015.0
20260903131411 71 44 2.0 11.0 0.00 0.09 0.06 80 1015.0
20260903130906 71 135 2.0 11.0 0.00 0.09 0.06 79 1014.9
20260903130407 72 210 2.0 11.0 0.00 0.09 0.06 77 1015.2
20260903125838 72 175 2.0 16.0 0.00 0.09 0.06 77 1015.1
20260903125335 71 111 3.0 16.0 0.00 0.09 0.06 79 1015.1
20260903124838 71 160 3.0 16.0 0.00 0.09 0.06 81 1015.1
20260903123311 71 119 3.0 6.0 0.00 0.09 0.06 79 1015.0
20260903122813 71 190 3.0 14.0 0.00 0.09 0.06 80 1014.8
20260903122314 71 231 3.0 14.0 0.00 0.09 0.06 82 1014.8
20260903121811 70 103 3.0 14.0 0.00 0.09 0.06 81 1014.9
20260903121356 70 110 2.0 14.0 0.00 0.09 0.06 82 1014.9
20260903120815 70 165 2.0 12.0 0.00 0.09 0.06 83 1015.0
20260903120331 70 189 3.0 12.0 0.00 0.09 0.06 82 1014.9
20260903115424 70 102 2.0 12.0 0.00 0.09 0.06 83 1015.0
20260903114315 70 153 2.0 12.0 0.00 0.09 0.06 84 1014.8
20260903113830 69 125 2.0 12.0 0.00 0.09 0.06 85 1014.8
20260903113309 69 129 2.0 9.0 0.00 0.09 0.06 85 1014.8
20260903112811 69 123 2.0 9.0 0.00 0.09 0.06 85 1014.7
20260903112306 69 129 2.0 15.0 0.00 0.09 0.06 84 1014.6
20260903111812 70 122 2.0 15.0 0.00 0.09 0.06 84 1014.5
20260903111310 69 191 3.0 19.0 0.00 0.09 0.06 84 1014.4
20260903110821 69 66 4.0 19.0 0.00 0.09 0.06 85 1014.5
20260903110314 69 113 3.0 19.0 0.00 0.09 0.06 83 1014.5
20260903105737 69 103 3.0 19.0 0.00 0.09 0.06 83 1014.5
20260903105233 70 11 2.0 14.0 0.00 0.09 0.06 83 1014.5
20260903104235 69 118 2.0 13.0 0.00 0.09 0.06 84 1014.5
20260903103709 69 133 2.0 13.0 0.00 0.09 0.06 83 1014.5
20260903103211 70 81 2.0 8.0 0.00 0.09 0.06 84 1014.4
20260903102709 70 297 3.0 14.0 0.00 0.09 0.06 84 1014.3
20260903102208 70 108 3.0 14.0 0.00 0.09 0.06 83 1014.4
20260903101709 70 140 2.0 8.0 0.00 0.09 0.06 83 1014.5
20260903101137 70 104 2.0 15.0 0.00 0.09 0.06 84 1014.3
20260903100139 70 92 3.0 12.0 0.00 0.09 0.06 83 1014.2
20260903095639 70 127 2.0 11.0 0.00 0.09 0.06 84 1014.2
20260903094615 69 190 3.0 13.0 0.00 0.09 0.06 84 1014.2
20260903093611 69 147 2.0 12.0 0.00 0.09 0.06 86 1014.3
20260903093108 69 85 2.0 10.0 0.00 0.09 0.06 86 1014.3
20260903092610 69 136 3.0 10.0 0.00 0.09 0.06 86 1014.2
20260903091611 69 209 3.0 12.0 0.00 0.09 0.06 86 1014.0
20260903091108 69 342 3.0 11.0 0.00 0.09 0.06 84 1014.1
20260903090609 70 169 2.0 11.0 0.00 0.09 0.06 84 1014.0
20260903090111 70 17 2.0 6.0 0.00 0.09 0.06 85 1014.0
20260903085609 69 86 3.0 12.0 0.00 0.09 0.06 85 1013.9
20260903085109 69 252 2.0 12.0 0.00 0.09 0.06 86 1013.8
20260903084605 69 122 2.0 11.0 0.00 0.09 0.06 86 1014.0
20260903084112 69 203 2.0 10.0 0.00 0.09 0.06 86 1013.8
20260903083537 68 253 2.0 3.0 0.00 0.09 0.06 86 1013.9
20260903083040 68 174 2.0 10.0 0.00 0.09 0.06 86 1013.7
20260903082535 68 121 1.0 9.0 0.00 0.09 0.06 86 1013.7
20260903082048 68 124 1.0 8.0 0.00 0.09 0.06 87 1013.7
20260903081528 68 93 1.0 8.0 0.00 0.09 0.06 87 1013.7
20260903080532 68 117 1.0 6.0 0.00 0.09 0.06 88 1013.6
20260903080019 68 143 1.0 5.0 0.00 0.09 0.06 88 1013.5
20260903075027 68 157 1.0 9.0 0.00 0.09 0.06 88 1013.5
20260903074524 68 133 1.0 9.0 0.00 0.09 0.06 89 1013.6
20260903073519 67 117 1.0 10.0 0.00 0.09 0.06 89 1013.5
20260903073027 67 121 1.0 10.0 0.00 0.09 0.06 89 1013.4
20260903071510 67 120 0.0 1.0 0.00 0.09 0.06 90 1013.6
20260903070935 67 149 0.0 1.0 0.00 0.09 0.06 90 1013.5
20260903070410 66 66 0.0 2.0 0.00 0.09 0.06 90 1013.7
20260903065908 66 197 0.0 2.0 0.00 0.09 0.05 90 1013.7
20260903064911 66 101 0.0 0.0 0.00 0.09 0.05 90 1013.6
20260903064408 66 203 0.0 3.0 0.00 0.09 0.05 90 1013.5
20260903063909 66 259 0.0 3.0 0.00 0.09 0.05 91 1013.4
20260903063410 66 154 0.0 1.0 0.00 0.09 0.05 91 1013.3
20260903062910 66 184 0.0 6.0 0.01 0.09 0.05 91 1013.3
20260903062407 66 205 0.0 6.0 0.01 0.09 0.05 91 1013.4
20260903061909 66 176 0.0 0.0 0.01 0.09 0.05 91 1013.3
20260903061333 66 166 0.0 4.0 0.01 0.09 0.05 91 1013.3
20260903060309 66 140 0.0 1.0 0.01 0.09 0.06 90 1013.3
20260903055817 65 221 0.0 3.0 0.01 0.09 0.06 90 1013.3
20260903055310 65 257 0.0 3.0 0.01 0.09 0.06 90 1013.1
20260903054312 66 220 0.0 7.0 0.01 0.09 0.06 90 1013.3
20260903053810 66 203 0.0 7.0 0.01 0.09 0.06 90 1013.5
20260903053311 66 193 0.0 4.0 0.01 0.09 0.05 90 1013.3
20260903052822 66 176 0.0 4.0 0.00 0.09 0.05 90 1013.4
20260903052307 66 222 0.0 4.0 0.00 0.09 0.05 90 1013.3
20260903051806 66 216 0.0 0.0 0.00 0.09 0.05 90 1013.4
20260903051238 66 203 0.0 5.0 0.00 0.09 0.05 90 1013.4
20260903050733 66 175 0.0 5.0 0.00 0.09 0.05 90 1013.4
20260903045711 67 201 0.0 7.0 0.00 0.09 0.05 90 1013.5
20260903045212 67 203 1.0 7.0 0.00 0.09 0.05 90 1013.5
20260903044706 67 209 1.0 5.0 0.00 0.09 0.05 90 1013.5
20260903044156 67 206 1.0 7.0 0.00 0.09 0.05 90 1013.4
20260903043633 67 43 1.0 5.0 0.00 0.09 0.05 90 1013.2
20260903043134 67 189 1.0 5.0 0.00 0.09 0.05 90 1013.2
20260903042110 67 196 0.0 5.0 0.00 0.09 0.05 90 1013.2